Regional Weather Roundup
Issued by NWS

Home | Current Version | Previous Version | Text Only | Print | Product List | Glossary Off
Versions: 1 2 3 4 5 6 7 8 9 10 11 12 13 14 15 16 17 18 19 20 21 22 23 24 25 26 27 28 29 30 31 32 33 34 35 36 37 38 39 40 41 42 43 44 45 46 47 48 49 50

239
ASUS43 KDMX 061703
RWRIA

WEATHER ROUNDUP FOR IOWA
NATIONAL WEATHER SERVICE DES MOINES IA
1100 AM CST SAT FEB 06 2016

NOTE: "FAIR" INDICATES FEW OR NO CLOUDS BELOW 12,000 FEET WITH NO
SIGNIFICANT WEATHER AND/OR OBSTRUCTIONS TO VISIBILITY.

* - THESE STATIONS ARE NOT NWS STATIONS...THUS NOT UNDER NWS
QUALITY CONTROL.  THEY ALSO DO NOT REPORT WEATHER SUCH
AS PRECIPITATION OR FOG.

IAZ001>003-012>014-020>022-031>034-043>046-061800-
   NORTHWEST IOWA

CITY           SKY/WX    TMP DP  RH WIND       PRES   REMARKS
CARROLL *      FOG       28  28 100 SW14      30.18F VSB 1/2 WCI  17
CHEROKEE *     CLOUDY    28  28 100 S9        30.15F WCI  20
DENISON *      CLOUDY    30  30 100 SW9       30.17S WCI  22
LE MARS *      SUNNY     25  27 100 S10       30.14F WCI  15
ORANGE CITY *  CLOUDY    23  23 100 S6        30.11S WCI  16
SHELDON *      SUNNY     25  25 100 S15       30.09S WCI  12
SIOUX CITY     SUNNY     27  21  78 E8        30.16F WCI  19
SPENCER        CLOUDY    30  25  81 S9        30.12F WCI  22
STORM LAKE *   CLOUDY    27  28 100 MISG      30.15R FOG
$$

IAZ055>058-069>071-079>083-090>094-061800-
   SOUTHWEST IOWA

CITY           SKY/WX    TMP DP  RH WIND       PRES   REMARKS
ATLANTIC *     CLOUDY    30  30 100 S10       30.21F FOG     WCI  21
AUDUBON *      FOG       28  27  93 SW8       30.20F VSB 1/4 WCI  20
CLARINDA *     PTSUNNY   36  32  87 SW8       30.27F WCI  29
COUNCIL BLFS * SUNNY     28  30 100 SW9       30.22S WCI  20
CRESTON *      FOG       28  28 100 SW9       30.24F VSB 1/4 WCI  20
HARLAN  *      FOG       28  28 100 S13       30.24S VSB 1/4 WCI  18
LAMONI         CLOUDY    31  30  96 W8        30.25F FOG     WCI  23
RED OAK *      FOG       30  30 100 S8        30.24F VSB 1/4 WCI  23
SHENANDOAH *   SUNNY     36  36 100 S9        30.25F WCI  29
$$

IAZ047>049-059>061-072>074-084-061800-
   CENTRAL IOWA

CITY           SKY/WX    TMP DP  RH WIND       PRES   REMARKS
AMES           CLOUDY    29  27  92 SW10      30.22S FOG     WCI  20
ANKENY *       CLOUDY    30  30 100 VRB7      30.24S FOG     WCI  23
BOONE *        CLOUDY    28  28 100 SW9       30.19F FOG     WCI  20
CHARITON *     FOG       28  28 100 W7        30.25S VSB 1/2 WCI  21
DES MOINES     CLOUDY    31  27  85 W8        30.24S FOG     WCI  23
GRINNELL*      CLOUDY    32  28  86 W9        30.23S WCI  24
KNOXVILLE *    FOG       28  28 100 W7        30.23S VSB<1/4 WCI  21
MARSHALLTOWN   CLOUDY    29  28  96 SW10      30.21S FOG     WCI  20
NEWTON *       CLOUDY    30  32 100 W8        30.23S FOG     WCI  23
PELLA *        CLOUDY    31  28  89 W7        30.26S FOG     WCI  24
$$

IAZ004>006-015-016-023>025-035-036-061800-
   NORTH CENTRAL IOWA

CITY           SKY/WX    TMP DP  RH WIND       PRES   REMARKS
ALGONA *       FOG       27  27 100 SW20      30.14S VSB<1/4 WCI  13
CLARION *      FOG       27  27 100 SW17      30.17F VSB 1/4 WCI  14
ESTHERVILLE    CLOUDY    26  25  96 S16       30.10F WCI  14
FORT DODGE *   CLOUDY    27  25  93 SW12      30.18F VSB 3/4 WCI  16
MASON CITY     FOG       26  26 100 SW15      30.17S VSB 1/4 WCI  14
FOREST CITY *  FOG       28  28 100 S10       30.15R VSB 1/4 WCI  19
WEBSTER CITY * FOG       28  28 100 S13       30.17F VSB 0   WCI  18
IOWA FALLS *   CLOUDY    28  27  93 SW12      30.20S FOG     WCI  18
$$

IAZ007>011-017>019-026>030-037>042-050>054-066-061800-
   NORTHEAST IOWA

CITY           SKY/WX    TMP DP  RH WIND       PRES   REMARKS
CEDAR RAPIDS   CLOUDY    31  29  92 SW8       30.22F FOG     WCI  23
CHARLES CITY * CLOUDY    27  27 100 SW13      30.17F FOG     WCI  16
CLINTON *      SUNNY     36  25  64 W9        30.24F WCI  29
DECORAH *      CLOUDY    28  27  93 W8        30.17R WCI  20
DUBUQUE        CLOUDY    29  27  92 SW12      30.19F FOG     WCI  19
MONTICELLO *   CLOUDY    32  28  86 SW7       30.21S WCI  26
OELWEIN *      CLOUDY    30  28  93 SW10      30.19S FOG     WCI  21
WATERLOO       CLOUDY    29  26  89 SW14      30.20S FOG     WCI  18
$$

IAZ064-065-067-068-078-061800-
   EAST CENTRAL IOWA

CITY           SKY/WX    TMP DP  RH WIND       PRES   REMARKS
DAVENPORT      SUNNY     35  24  64 SW9       30.24F WCI  28
IOWA CITY      CLOUDY    32  26  78 SW6       30.26F WCI  26
MT. PLEASANT * SUNNY     40  29  66 CALM      30.26F
MUSCATINE *    SUNNY     37  27  65 W7        30.26F WCI  32
QUAD CITIES    SUNNY     38  23  55 W8        30.24F WCI  32
$$

IAZ062-063-075>077-085>089-095>099-061800-
   SOUTHEAST IOWA

CITY           SKY/WX    TMP DP  RH WIND       PRES   REMARKS
BURLINGTON     SUNNY     38  26  62 W5        30.26S WCI  34
FAIRFIELD *    SUNNY     37  28  70 VRB6      30.24F WCI  33
FORT MADISON * SUNNY     37  27  65 NW3       30.27R
KEOKUK *       SUNNY     39  25  56 VRB5      30.26S
OSKALOOSA *      N/A     34  28  80 SW6       30.24F WCI  29
OTTUMWA        SUNNY     37  30  75 W6        30.24F WCI  32
WASHINGTON *   MOSUNNY   36  28  75 W7        30.25F WCI  30
$$

ABBREVIATIONS USED IN REMARKS
   TC - TEMPERATURES IN CELSIUS
  WCI - WIND CHILL INDEX
   HX - HEAT INDEX
  VSB - VISIBILITY
$$





USA.gov is the U.S. government's official web portal to all federal, state and local government web resources and services.